Regional Weather Roundup
Issued by NWS

Home | Current Version | Previous Version | Text Only | Print | Product List | Glossary On
Versions: 1 2 3 4 5 6 7 8 9 10 11 12 13 14 15 16 17 18 19 20 21 22 23 24 25 26 27 28 29 30 31 32 33 34 35 36 37 38 39 40 41 42 43 44 45 46 47 48 49 50
000
ASUS42 KKEY 261610
RWRKEY

FLORIDA REGIONAL WEATHER ROUNDUP FOR THE FLORIDA KEYS
NATIONAL WEATHER SERVICE KEY WEST FLORIDA
1200 PM EDT MON JUN 26 2017

...SOUTH FLORIDA AND THE KEYS...

CITY           SKY/WX    TMP DP  RH WIND       PRES   REMARKS
FORT MYERS     MOSUNNY   88  74  63 W6        30.07S HX  96
SW REGIONAL AP MOSUNNY   89  71  55 CALM      30.07F HX  95
NAPLES         PTSUNNY   88  74  63 SW6       30.06F HX  96
MIAMI          MOSUNNY   90  72  55 SE10      30.07S HX  97
WEST KENDALL   SUNNY     91  73  55 SE12      30.06F HX  99
HOMESTEAD      MOSUNNY   88  77  69 SE10      30.06S HX 100
MARATHON       MOSUNNY   89  78  70 SE5       30.05S HX 103
BOCA CHICA NAS MOSUNNY   86  78  77 SE12      30.05S HX  98
KEY WEST INTL  MOSUNNY   87  77  72 SE9       30.06S HX  99

...INTERNATIONAL WEATHER...

CITY           SKY/WX    TMP DP  RH WIND       PRES   REMARKS
NASSAU BAHAMAS PTSUNNY   90  75  62 E10       30.08S HX 100
CANCUN MEXICO  PTSUNNY   88  77  70 E9        30.03F HX 100
COZUMEL MEXICO PTSUNNY   86  75  70 SE13      30.01S HX  95

ADJACENT COASTAL WATERS...

STATION/POSITION TIME  SKY/WX   TEMP    WIND        PRES    WAVE
                                AIR SEA DIR/SP/G            HT/PER
                 (UTC)          (F)     (DEG/KT/KT) (MB)    (FT/S)
PULASKI SHOAL LI 1600            84     130/  8/ 10 1017.9R
SAND KEY         1550            83     130/ 10/ 11 1018.3S
LONG KEY         NOT AVBL
MOLASSES REEF    1600            83 84  150/  8/  9 1018.4R
FOWEY ROCKS      1600            84 83  150/  9/  9 1019.0R
Buoy 42097       1530               83                N/A     1/ 4

$$



USA.gov is the U.S. government's official web portal to all federal, state and local government web resources and services.